UAL1010 KDEN-KTPA

Flight info

Callsign UAL1010
Flight time N/A
Altitude 33000
Route EPKEE7 DUUZE GCK TUL LIT STEIT ACORI MAATY5
Aircraft A21N/M-SDE2E3FGHIRWXY/LB1

Departure

Time N/A
Airport Denver International Airport (KDEN)

Arrival

Time 2026-05-05 18:51
Airport Tampa International Airport (KTPA)
Time Latitude Longitude Altitude Speed Heading
2026-05-05 17:43 33.48612 -89.35894 32958 ft 541 kts 122°
2026-05-05 17:44 33.46704 -89.32019 32960 ft 541 kts 122°
2026-05-05 17:44 33.42869 -89.24250 32980 ft 542 kts 122°
2026-05-05 17:45 33.39025 -89.16490 32992 ft 543 kts 122°
2026-05-05 17:45 33.35169 -89.08720 32999 ft 541 kts 122°
2026-05-05 17:46 33.31329 -89.00991 32999 ft 540 kts 122°
2026-05-05 17:46 33.27485 -88.93261 33006 ft 540 kts 122°
2026-05-05 17:47 33.23633 -88.85554 33005 ft 540 kts 122°
2026-05-05 17:47 33.19777 -88.77843 32979 ft 540 kts 122°
2026-05-05 17:48 33.15917 -88.70151 32973 ft 540 kts 122°
2026-05-05 17:48 33.12067 -88.62474 32986 ft 539 kts 122°
2026-05-05 17:49 33.08203 -88.54804 32985 ft 539 kts 122°
2026-05-05 17:49 33.04339 -88.47138 32977 ft 539 kts 122°
2026-05-05 17:50 33.00487 -88.39514 32975 ft 538 kts 122°
2026-05-05 17:50 32.96615 -88.31881 32982 ft 538 kts 122°
2026-05-05 17:51 32.92737 -88.24246 32989 ft 541 kts 122°
2026-05-05 17:51 32.88855 -88.16601 32983 ft 538 kts 122°
2026-05-05 17:52 32.84965 -88.08976 32994 ft 538 kts 122°
2026-05-05 17:52 32.81060 -88.01328 33002 ft 545 kts 122°
2026-05-05 17:53 32.77098 -87.93581 33008 ft 550 kts 122°
2026-05-05 17:53 32.73186 -87.85896 32998 ft 547 kts 120°
2026-05-05 17:54 32.69486 -87.78014 32990 ft 546 kts 119°
2026-05-05 17:54 32.65805 -87.70138 32990 ft 543 kts 119°
2026-05-05 17:55 32.62146 -87.62316 32981 ft 541 kts 119°
2026-05-05 17:55 32.58475 -87.54499 32981 ft 542 kts 119°
2026-05-05 17:56 32.54813 -87.46721 32972 ft 539 kts 119°
2026-05-05 17:56 32.51153 -87.38974 32970 ft 540 kts 119°
2026-05-05 17:57 32.47473 -87.31206 32979 ft 539 kts 119°
2026-05-05 17:57 32.43823 -87.23497 32995 ft 535 kts 119°
2026-05-05 17:58 32.40129 -87.15739 33026 ft 544 kts 119°
2026-05-05 17:58 32.36476 -87.08042 33049 ft 539 kts 119°
2026-05-05 17:59 32.32798 -87.00311 33047 ft 534 kts 119°
2026-05-05 17:59 32.29140 -86.92655 33050 ft 537 kts 119°
2026-05-05 18:00 32.25470 -86.84998 33028 ft 537 kts 119°
2026-05-05 18:00 32.21793 -86.77337 32988 ft 534 kts 119°
2026-05-05 18:01 32.18129 -86.69720 32955 ft 534 kts 119°
2026-05-05 18:01 32.14443 -86.62071 32986 ft 534 kts 119°
2026-05-05 18:02 32.10759 -86.54438 33001 ft 534 kts 119°
2026-05-05 18:02 32.07085 -86.46839 33012 ft 534 kts 119°
2026-05-05 18:03 32.03389 -86.39211 33019 ft 538 kts 120°
2026-05-05 18:03 31.99635 -86.31487 33027 ft 549 kts 120°
2026-05-05 18:04 31.95885 -86.23782 33030 ft 535 kts 120°
2026-05-05 18:04 31.92177 -86.16173 33064 ft 540 kts 120°
2026-05-05 18:05 31.88401 -86.08462 33077 ft 544 kts 120°
2026-05-05 18:05 31.84636 -86.00763 33072 ft 536 kts 120°
2026-05-05 18:06 31.80901 -85.93148 33073 ft 536 kts 120°
2026-05-05 18:06 31.76933 -85.85772 33062 ft 536 kts 131°
2026-05-05 18:07 31.71597 -85.79805 33064 ft 528 kts 143°
2026-05-05 18:07 31.66034 -85.74185 33054 ft 526 kts 142°
2026-05-05 18:08 31.60493 -85.68520 33058 ft 532 kts 142°
2026-05-05 18:08 31.54920 -85.62781 33055 ft 530 kts 142°
2026-05-05 18:09 31.49373 -85.57086 33052 ft 530 kts 142°
2026-05-05 18:09 31.43839 -85.51406 33091 ft 527 kts 142°
2026-05-05 18:10 31.38308 -85.45741 33094 ft 528 kts 142°
2026-05-05 18:10 31.32758 -85.40045 33110 ft 527 kts 142°
2026-05-05 18:11 31.27225 -85.34406 33102 ft 527 kts 142°
2026-05-05 18:11 31.21724 -85.28816 33096 ft 530 kts 142°
2026-05-05 18:12 31.16199 -85.23178 33084 ft 528 kts 142°
2026-05-05 18:12 31.10645 -85.17532 33071 ft 527 kts 142°
2026-05-05 18:13 31.05095 -85.11905 33070 ft 531 kts 142°
2026-05-05 18:13 30.99534 -85.06275 33065 ft 527 kts 142°
2026-05-05 18:14 30.94907 -85.01604 33069 ft 532 kts 142°
2026-05-05 18:14 30.89361 -84.96005 33062 ft 527 kts 142°
2026-05-05 18:15 30.83826 -84.90427 33063 ft 525 kts 142°
2026-05-05 18:15 30.78298 -84.84861 33066 ft 525 kts 142°
2026-05-05 18:16 30.72804 -84.79348 33068 ft 530 kts 142°
2026-05-05 18:16 30.67263 -84.73802 33051 ft 524 kts 142°
2026-05-05 18:17 30.61782 -84.68322 33039 ft 527 kts 142°
2026-05-05 18:17 30.56201 -84.62745 33067 ft 534 kts 142°
2026-05-05 18:18 30.50605 -84.57170 33065 ft 527 kts 142°
2026-05-05 18:18 30.45040 -84.51633 33072 ft 527 kts 142°
2026-05-05 18:19 30.39460 -84.46083 33074 ft 528 kts 142°
2026-05-05 18:19 30.33900 -84.40569 33073 ft 524 kts 142°
2026-05-05 18:20 30.28398 -84.35110 33072 ft 526 kts 142°
2026-05-05 18:20 30.22798 -84.29558 33078 ft 528 kts 142°
2026-05-05 18:21 30.17271 -84.24083 33071 ft 522 kts 142°
2026-05-05 18:21 30.11746 -84.18619 33079 ft 522 kts 142°
2026-05-05 18:22 30.06231 -84.13176 33081 ft 521 kts 142°
2026-05-05 18:22 30.00718 -84.07744 33085 ft 521 kts 142°
2026-05-05 18:23 29.95198 -84.02317 33081 ft 521 kts 142°
2026-05-05 18:23 29.89718 -83.96938 33086 ft 520 kts 142°
2026-05-05 18:24 29.84211 -83.91531 33089 ft 520 kts 143°
2026-05-05 18:24 29.78250 -83.86927 33090 ft 513 kts 155°
2026-05-05 18:25 29.72020 -83.82959 33084 ft 512 kts 156°
2026-05-05 18:25 29.65785 -83.78973 33026 ft 511 kts 155°
2026-05-05 18:25 29.62702 -83.76989 32729 ft 502 kts 155°
2026-05-05 18:26 29.59694 -83.75048 32445 ft 491 kts 155°
2026-05-05 18:26 29.56742 -83.73147 32176 ft 482 kts 155°
2026-05-05 18:26 29.53827 -83.71274 31794 ft 478 kts 155°
2026-05-05 18:26 29.50937 -83.69421 31329 ft 474 kts 155°
2026-05-05 18:27 29.48064 -83.67577 30815 ft 472 kts 155°
2026-05-05 18:27 29.45226 -83.65756 30324 ft 470 kts 155°
2026-05-05 18:27 29.42379 -83.63933 29760 ft 468 kts 155°
2026-05-05 18:27 29.39509 -83.62093 29175 ft 466 kts 155°
2026-05-05 18:28 29.33874 -83.58491 28123 ft 460 kts 155°
2026-05-05 18:28 29.31122 -83.56735 27627 ft 457 kts 155°
2026-05-05 18:28 29.28357 -83.54967 27125 ft 454 kts 155°
2026-05-05 18:29 29.25628 -83.53224 26617 ft 451 kts 155°
2026-05-05 18:29 29.22902 -83.51487 26124 ft 446 kts 155°
2026-05-05 18:29 29.20207 -83.49771 25652 ft 441 kts 155°
2026-05-05 18:29 29.17515 -83.48056 25207 ft 436 kts 155°
2026-05-05 18:30 29.14876 -83.46375 24729 ft 432 kts 155°
2026-05-05 18:30 29.12258 -83.44714 24241 ft 428 kts 155°
2026-05-05 18:30 29.09687 -83.43086 23763 ft 425 kts 155°
2026-05-05 18:30 29.07119 -83.41459 23236 ft 421 kts 155°
2026-05-05 18:31 29.04560 -83.39836 22708 ft 417 kts 155°
2026-05-05 18:31 29.02041 -83.38238 22208 ft 413 kts 155°
2026-05-05 18:31 28.99542 -83.36648 21715 ft 409 kts 155°
2026-05-05 18:31 28.97069 -83.35078 21239 ft 405 kts 155°
2026-05-05 18:32 28.94619 -83.33525 20761 ft 401 kts 155°
2026-05-05 18:32 28.92194 -83.31986 20308 ft 397 kts 154°
2026-05-05 18:32 28.89800 -83.30473 19871 ft 392 kts 154°
2026-05-05 18:32 28.87417 -83.28963 19446 ft 388 kts 154°
2026-05-05 18:33 28.85069 -83.27475 19017 ft 384 kts 154°
2026-05-05 18:33 28.82745 -83.26005 18605 ft 380 kts 154°
2026-05-05 18:33 28.80448 -83.24557 18166 ft 376 kts 154°
2026-05-05 18:33 28.78169 -83.23118 17712 ft 371 kts 154°
2026-05-05 18:34 28.75922 -83.21702 17279 ft 366 kts 154°
2026-05-05 18:34 28.73711 -83.20309 16867 ft 361 kts 154°
2026-05-05 18:34 28.71602 -83.18978 16496 ft 356 kts 154°
2026-05-05 18:34 28.69384 -83.17580 16114 ft 350 kts 154°
2026-05-05 18:35 28.67287 -83.16257 15761 ft 344 kts 154°
2026-05-05 18:35 28.65197 -83.14940 15406 ft 344 kts 154°
2026-05-05 18:35 28.63099 -83.13616 15045 ft 345 kts 154°
2026-05-05 18:35 28.61002 -83.12295 14638 ft 343 kts 153°
2026-05-05 18:36 28.58932 -83.10993 14245 ft 339 kts 153°
2026-05-05 18:36 28.56871 -83.09697 13859 ft 335 kts 153°
2026-05-05 18:36 28.54844 -83.08424 13445 ft 331 kts 153°
2026-05-05 18:36 28.52844 -83.07171 13057 ft 326 kts 153°
2026-05-05 18:37 28.50864 -83.05931 12681 ft 324 kts 153°
2026-05-05 18:37 28.48894 -83.04693 12311 ft 324 kts 153°
2026-05-05 18:37 28.46913 -83.03449 11939 ft 325 kts 153°
2026-05-05 18:37 28.44937 -83.02209 11562 ft 325 kts 153°
2026-05-05 18:38 28.42947 -83.00964 11180 ft 326 kts 153°
2026-05-05 18:38 28.40989 -82.99735 10806 ft 327 kts 153°
2026-05-05 18:38 28.39011 -82.98497 10421 ft 322 kts 153°
2026-05-05 18:38 28.37071 -82.97282 10054 ft 317 kts 153°
2026-05-05 18:39 28.35147 -82.96083 9724 ft 310 kts 153°
2026-05-05 18:39 28.33288 -82.94923 9482 ft 300 kts 153°
2026-05-05 18:39 28.31484 -82.93792 9103 ft 296 kts 153°
2026-05-05 18:39 28.29699 -82.92654 8695 ft 293 kts 149°
2026-05-05 18:40 28.28169 -82.91149 8314 ft 291 kts 127°
2026-05-05 18:40 28.27345 -82.89080 7975 ft 290 kts 101°
2026-05-05 18:40 28.27257 -82.86809 7671 ft 288 kts 88°
2026-05-05 18:40 28.27366 -82.84549 7367 ft 286 kts 88°
2026-05-05 18:41 28.27468 -82.82301 7070 ft 284 kts 88°
2026-05-05 18:41 28.27552 -82.80066 6775 ft 282 kts 89°
2026-05-05 18:41 28.27625 -82.77840 6485 ft 281 kts 89°
2026-05-05 18:41 28.27691 -82.75642 6177 ft 278 kts 89°
2026-05-05 18:42 28.27753 -82.73451 5882 ft 276 kts 89°
2026-05-05 18:42 28.27810 -82.71268 5659 ft 278 kts 89°
2026-05-05 18:42 28.27868 -82.69082 5405 ft 274 kts 89°
2026-05-05 18:42 28.27922 -82.66935 5138 ft 269 kts 90°
2026-05-05 18:43 28.27977 -82.64854 4970 ft 258 kts 89°
2026-05-05 18:43 28.28030 -82.62879 4947 ft 243 kts 89°
2026-05-05 18:43 28.28079 -82.60962 4958 ft 244 kts 90°
2026-05-05 18:43 28.27813 -82.59077 4775 ft 241 kts 115°
2026-05-05 18:44 28.26916 -82.57534 4577 ft 229 kts 134°
2026-05-05 18:44 28.25671 -82.56503 4350 ft 218 kts 156°
2026-05-05 18:44 28.24264 -82.55952 4027 ft 212 kts 163°
2026-05-05 18:44 28.22846 -82.55482 3640 ft 212 kts 163°
2026-05-05 18:45 28.21465 -82.55011 3414 ft 198 kts 162°
2026-05-05 18:45 28.20202 -82.54566 3325 ft 183 kts 161°
2026-05-05 18:45 28.19031 -82.54146 3176 ft 170 kts 161°
2026-05-05 18:45 28.17948 -82.53752 3002 ft 158 kts 161°
2026-05-05 18:46 28.16925 -82.53272 2970 ft 164 kts 153°
2026-05-05 18:46 28.15868 -82.52782 3017 ft 165 kts 161°
2026-05-05 18:46 28.14744 -82.52500 3002 ft 166 kts 171°
2026-05-05 18:46 28.13602 -82.52383 2876 ft 163 kts 176°
2026-05-05 18:47 28.12541 -82.52361 2710 ft 146 kts 179°
2026-05-05 18:47 28.11523 -82.52383 2500 ft 146 kts 180°
2026-05-05 18:47 28.10505 -82.52415 2315 ft 146 kts 180°
2026-05-05 18:47 28.09520 -82.52448 2165 ft 146 kts 180°
2026-05-05 18:48 28.08525 -82.52482 1971 ft 142 kts 181°
2026-05-05 18:48 28.07530 -82.52516 1763 ft 143 kts 181°
2026-05-05 18:48 28.06534 -82.52550 1556 ft 143 kts 180°
2026-05-05 18:48 28.05548 -82.52583 1370 ft 144 kts 181°
2026-05-05 18:49 28.04887 -82.52606 1258 ft 144 kts 181°
2026-05-05 18:49 28.03565 -82.52655 1000 ft 143 kts 181°
2026-05-05 18:49 28.02903 -82.52681 862 ft 143 kts 181°
2026-05-05 18:49 28.01931 -82.52700 722 ft 140 kts 182°
2026-05-05 18:50 28.00963 -82.52719 452 ft 137 kts 184°
2026-05-05 18:50 28.00003 -82.52753 384 ft 139 kts 184°
2026-05-05 18:50 27.99024 -82.52795 157 ft 137 kts 185°
2026-05-05 18:50 27.98099 -82.52838 56 ft 131 kts 184°
2026-05-05 18:51 27.97254 -82.52871 44 ft 90 kts 180°
2026-05-05 18:51 27.97001 -82.52879 41 ft 16 kts 184°
2026-05-05 18:51 27.96954 -82.52974 44 ft 15 kts 287°
2026-05-05 18:51 27.97053 -82.53003 42 ft 17 kts
2026-05-05 18:52 27.97177 -82.52998 46 ft 19 kts
2026-05-05 18:52 27.97315 -82.52994 47 ft 21 kts
2026-05-05 18:52 27.97382 -82.53060 48 ft 12 kts 270°
2026-05-05 18:52 27.97381 -82.53160 48 ft 13 kts 270°
2026-05-05 18:53 27.97385 -82.53197 48 ft 5 kts 303°
2026-05-05 18:53 27.97422 -82.53200 48 ft 3 kts
2026-05-05 18:53 27.97440 -82.53197 47 ft 1 kts
2026-05-05 18:53 27.97442 -82.53197 47 ft 0 kts
2026-05-05 19:06 27.97446 -82.53196 46 ft 1 kts
2026-05-05 19:06 27.97451 -82.53195 47 ft 0 kts